Wind_Speed
36 36 38 40 42 45 47 49 50 49 47 44 41 40 40 41 40 38 32 26 21 18 18 20 22 24 25 26 28 29 30 30 29 28 27 26 26 26 27 28 28 29 29 30 31 31 32 33 34 35 36 37 38 39 39 40 40 41 41 41 42 43 44 45 45 46 48 49 50 51 53 54 55 56 56 57 57 57 56 56 56 56 56 56 55 55
36 36 38 39 41 43 45 45 44 43 40 38 37 37 38 38 37 32 25 20 17 17 19 22 24 25 27 28 29 28 28 27 26 25 25 25 25 26 27 27 28 29 30 30 31 32 33 34 35 36 37 37 38 39 40 40 41 41 42 43 44 44 45 46 47 48 49 51 52 53 54 55 55 56 56 56 56 55 55 55 55 55 55 54 54 54
33 34 35 37 39 40 42 41 39 36 34 33 32 33 33 32 29 25 21 19 19 21 24 26 28 28 28 28 27 26 25 24 24 24 24 25 25 26 27 28 29 29 30 31 32 33 34 35 36 37 37 38 38 39 40 40 41 42 44 45 46 47 48 49 50 51 52 53 53 54 54 54 54 54 54 54 54 54 54 54 54 53 53 53 53 53
26 28 30 32 34 35 35 34 32 30 28 27 27 26 26 25 23 22 22 23 25 27 29 29 29 28 27 25 24 23 23 23 24 24 25 25 26 27 28 29 30 31 32 33 34 35 36 37 37 38 38 39 39 39 40 40 42 44 46 47 48 49 50 51 52 52 53 53 53 53 53 53 52 52 52 52 52 52 52 52 52 52 52 52 52 51
20 22 23 24 25 26 25 24 23 22 22 22 22 21 21 22 23 24 26 28 29 30 30 28 27 25 23 22 22 22 23 24 25 25 26 27 27 28 29 31 32 33 34 35 36 37 37 38 39 39 39 39 40 40 40 42 43 45 47 48 49 50 51 51 52 52 52 51 51 51 51 50 50 50 51 51 51 51 51 51 51 51 51 50 50 50
18 19 18 17 17 17 18 18 18 18 19 19 20 21 23 24 26 28 29 29 29 28 27 25 23 22 21 21 22 23 24 25 26 27 27 28 29 30 31 32 33 34 35 36 37 38 38 39 39 40 40 40 41 41 43 44 46 47 48 49 49 50 50 50 50 50 49 49 49 49 49 49 49 49 49 49 50 50 50 50 50 50 50 49 49 48
18 18 18 16 15 16 16 17 18 18 19 21 22 24 25 27 27 28 27 27 25 24 23 21 21 21 21 22 23 24 26 27 27 28 29 30 31 32 33 34 35 36 37 38 38 38 39 39 39 40 41 42 43 44 45 46 47 47 48 48 48 48 48 48 47 47 47 47 47 47 47 48 48 48 48 48 48 49 49 49 49 48 48 48 47 46
17 18 19 19 18 18 18 19 19 20 21 23 24 25 25 25 25 25 24 23 22 21 20 20 20 21 22 23 25 26 28 29 29 30 31 31 32 33 34 35 36 37 37 38 38 38 38 39 40 41 43 44 44 45 46 46 46 46 46 46 46 46 45 45 45 46 46 46 46 46 46 46 47 47 47 47 47 48 48 48 47 47 46 46 45 44
18 19 20 21 21 22 22 22 22 22 23 24 24 24 24 23 22 22 21 21 20 20 20 21 22 23 24 26 27 28 29 30 31 31 32 33 33 34 35 36 37 37 38 38 38 38 39 40 42 43 43 44 45 45 45 45 44 44 44 44 44 44 44 44 44 44 45 45 45 45 45 45 46 46 46 46 47 47 46 46 46 45 44 43 42 41
20 21 21 22 23 23 23 23 23 24 24 23 23 22 22 21 21 20 20 20 21 21 21 23 24 25 26 28 29 30 31 31 32 33 33 34 34 35 35 36 37 37 38 38 38 39 40 41 42 42 43 43 43 43 43 43 42 42 42 42 42 43 43 43 43 43 43 43 44 44 44 45 45 45 45 45 45 45 45 44 43 43 42 41 40 38
23 23 23 23 23 24 24 23 23 23 23 22 22 21 20 20 20 20 21 21 22 22 24 25 26 27 28 29 30 31 32 32 33 33 34 34 35 35 36 36 37 37 38 38 39 39 40 40 41 41 41 41 41 41 41 41 41 41 41 41 42 42 42 42 42 42 42 43 43 43 44 44 44 44 44 44 44 43 43 42 41 40 39 38 37 36
25 25 24 24 24 24 24 23 23 22 22 21 21 21 20 20 20 21 21 22 23 24 25 26 27 28 29 30 31 31 32 33 34 34 34 35 35 36 36 36 37 37 38 38 38 39 39 39 39 40 40 39 39 40 40 40 40 40 41 41 41 41 41 41 41 41 42 42 43 43 43 43 43 43 42 42 41 41 40 39 38 38 37 36 35 34
28 27 27 26 25 25 25 24 23 22 22 21 20 20 20 20 21 21 21 22 23 24 26 27 28 28 29 30 31 32 33 33 34 34 35 35 35 36 36 36 37 37 37 37 38 38 38 38 38 38 38 38 39 39 39 39 39 40 40 40 40 40 40 40 41 41 41 42 42 42 42 41 41 40 40 39 39 38 38 37 36 36 35 34 34 33
30 30 29 28 27 26 26 25 23 22 21 20 20 19 19 20 20 20 21 22 24 25 26 27 29 29 30 31 32 32 33 34 34 35 35 35 35 35 35 36 36 36 36 36 37 37 37 37 37 37 38 38 38 38 38 39 39 39 39 39 39 39 40 40 40 41 41 41 40 40 40 39 39 38 37 37 36 36 35 35 34 34 34 33 33 33
33 32 31 30 28 27 26 24 23 21 20 20 19 19 20 20 21 21 22 23 25 26 27 28 29 30 31 32 32 33 33 34 34 35 35 35 35 35 34 35 35 36 35 36 36 36 36 36 36 37 37 37 37 38 38 38 38 38 38 38 39 39 39 40 40 40 39 39 38 38 37 37 36 36 35 35 34 34 34 33 33 33 33 33 33 33
33 33 33 31 29 27 26 24 23 22 21 21 21 21 21 22 23 23 24 25 26 26 27 29 30 31 32 32 33 33 34 34 34 34 34 34 34 34 33 34 34 35 35 35 35 35 36 36 36 36 37 37 37 37 37 38 38 38 38 38 38 39 39 39 38 38 37 37 36 36 35 34 34 34 33 33 33 33 33 33 33 33 33 33 33 33
32 33 32 31 30 28 27 26 26 25 24 24 24 24 24 25 25 25 26 26 27 27 28 29 30 31 32 32 33 33 33 34 34 34 33 33 33 33 32 33 34 34 34 34 34 35 35 36 36 36 36 37 37 37 37 37 37 37 37 38 38 38 37 37 36 36 35 34 34 33 33 33 33 32 32 32 32 32 32 32 32 33 33 33 33 33
30 31 31 31 31 30 29 28 28 27 27 26 26 26 27 27 27 27 27 28 28 29 29 30 30 31 32 32 33 33 33 33 33 33 32 32 32 32 32 32 33 34 34 34 34 34 35 36 36 36 36 36 36 36 36 37 37 37 37 37 37 36 36 35 34 33 33 32 32 32 31 31 31 32 32 32 32 32 32 33 33 33 33 33 33 34
27 28 28 29 29 29 29 29 29 28 28 28 27 27 27 28 28 27 28 28 29 29 30 30 31 31 31 32 32 32 32 32 32 32 32 32 32 32 32 32 33 33 34 34 34 34 35 35 36 36 36 36 36 36 36 36 36 36 36 36 35 34 34 33 32 31 31 31 30 30 30 31 31 31 32 32 32 32 33 33 33 33 34 34 34 34
24 25 25 26 26 26 27 27 27 27 27 27 27 27 27 27 27 28 28 28 29 29 30 30 31 31 31 31 31 31 31 31 31 31 31 31 31 31 31 31 32 33 34 34 34 34 35 35 35 35 35 35 36 36 36 36 36 35 35 34 33 32 31 31 30 30 30 30 30 30 30 31 31 31 32 32 33 33 33 34 34 34 34 34 35 35
23 23 23 23 24 24 25 25 26 26 27 27 27 27 27 27 28 28 28 29 29 29 30 30 31 31 31 30 30 30 30 30 30 31 31 31 31 31 31 31 32 33 34 34 34 34 34 35 35 35 35 35 35 35 35 35 34 34 33 32 31 30 30 29 29 29 29 29 30 30 31 31 32 32 33 33 33 34 34 34 35 35 35 35 36 36
22 23 23 23 24 25 26 26 27 27 27 27 28 28 28 28 28 29 29 29 29 29 30 30 30 30 30 29 29 29 29 29 29 30 30 30 31 31 31 31 32 33 33 33 33 33 34 34 34 34 35 35 35 35 34 33 33 32 31 30 29 29 29 29 29 29 29 30 30 31 31 32 33 33 34 34 34 35 35 35 35 36 36 36 36 36
22 23 24 25 26 26 27 27 27 27 28 28 28 29 29 29 29 29 29 29 29 29 29 29 29 29 29 29 29 29 29 29 29 29 30 30 30 31 30 31 32 33 33 32 32 32 33 34 34 34 34 34 34 33 32 31 30 30 29 29 28 28 29 29 29 30 30 31 32 32 33 33 34 34 34 35 35 35 36 36 36 36 36 36 36 36
23 24 24 25 26 26 27 27 27 27 28 28 29 29 29 29 29 29 28 28 28 28 28 28 28 28 28 28 28 28 28 28 28 29 29 30 30 30 30 30 31 32 32 32 31 32 32 33 33 33 32 32 32 31 30 29 29 28 28 28 28 28 29 29 30 31 31 32 32 33 34 34 34 35 35 35 36 36 36 36 36 36 36 36 36 36
24 24 25 25 25 26 26 26 27 27 28 28 28 29 28 28 28 28 28 28 28 28 28 28 28 27 27 27 27 28 28 28 28 29 29 30 30 30 30 30 30 31 32 31 31 31 31 32 32 31 30 30 29 29 28 27 27 27 28 28 28 29 30 30 31 31 32 33 33 34 34 34 35 35 35 35 36 36 36 36 36 36 36 36 36 36
24 24 24 24 25 25 26 26 27 27 28 28 28 28 28 28 27 27 27 27 27 27 27 27 27 27 26 26 27 28 28 28 28 29 29 29 30 30 30 29 29 30 31 31 30 29 29 30 30 29 28 27 27 27 26 26 27 27 28 28 29 30 30 31 31 32 33 33 33 34 34 34 34 35 35 35 35 36 36 36 36 36 36 36 36 35
24 24 24 24 25 25 26 27 27 28 28 28 28 28 27 27 27 27 27 26 26 26 26 26 26 26 26 26 26 27 28 28 28 29 29 29 30 30 30 28 28 29 30 30 29 28 27 28 27 27 26 25 25 25 25 26 26 27 28 28 29 30 31 31 32 32 33 33 33 34 34 34 34 34 34 35 35 35 35 36 36 36 36 36 36 35
24 24 24 24 25 26 26 27 28 28 28 28 28 27 27 26 26 26 26 25 25 25 26 25 25 25 25 25 26 27 28 28 28 28 28 28 29 30 29 28 28 28 29 28 27 26 25 25 25 24 24 24 24 24 25 25 26 27 28 29 30 30 31 31 32 32 33 33 33 33 33 33 33 34 34 34 35 35 35 36 36 36 36 36 36 36
24 24 25 25 25 26 26 27 28 28 28 27 27 26 26 25 25 25 25 25 24 24 25 25 24 24 25 25 26 27 27 28 28 28 28 28 29 29 28 27 27 27 27 26 25 25 23 22 22 22 23 24 24 24 24 25 26 27 28 29 30 30 31 31 32 32 32 32 32 32 33 33 33 33 34 34 34 35 35 36 36 36 36 36 36 36
24 25 25 25 26 26 26 27 27 27 27 26 26 25 25 25 25 25 24 24 24 24 24 24 24 24 25 25 25 26 27 28 28 27 27 28 29 28 27 26 26 26 25 23 23 23 21 20 19 20 22 23 24 24 24 25 26 27 28 29 29 30 30 31 31 31 31 31 31 32 32 32 32 33 33 34 34 35 35 36 36 36 36 37 36 36
25 25 25 25 26 26 26 26 26 26 26 25 25 24 24 24 24 24 24 23 23 23 24 24 24 24 24 25 25 26 27 27 27 27 27 28 28 28 26 25 25 25 23 21 21 21 20 19 19 19 20 22 23 24 24 25 26 27 28 28 29 29 29 30 30 30 30 30 30 31 31 31 32 32 33 33 34 34 35 35 36 36 37 37 36 36
25 25 25 25 25 25 25 25 25 25 25 24 24 24 23 23 23 23 23 23 23 23 24 24 24 24 24 24 25 26 27 27 27 26 26 27 28 27 25 24 24 23 22 20 19 19 19 19 19 19 20 21 22 24 24 25 26 27 27 28 28 29 29 29 29 29 29 29 30 30 30 31 31 32 32 33 33 34 35 35 36 36 36 36 36 36
25 25 25 25 25 25 25 25 25 24 24 24 24 23 23 23 23 23 23 23 23 23 24 24 24 24 24 24 25 26 27 27 26 26 25 26 26 26 24 23 22 22 21 19 19 19 19 19 19 19 19 21 22 23 24 25 26 27 27 27 28 28 28 28 28 28 28 29 29 29 30 30 31 31 32 32 33 34 34 35 35 35 36 36 36 36
26 25 25 25 25 25 25 24 24 24 24 24 23 23 23 23 23 23 23 23 23 23 24 24 24 25 25 25 25 26 26 26 25 25 25 25 25 24 23 22 21 20 20 19 19 18 19 19 19 19 19 20 22 23 24 25 26 27 27 27 27 28 28 27 27 27 28 28 28 29 29 30 30 31 31 32 32 33 34 34 34 35 35 35 35 36
26 26 25 25 25 25 24 24 24 24 24 24 23 23 23 23 23 23 23 23 23 23 23 24 24 25 25 25 25 25 25 25 24 24 24 24 23 23 22 21 20 20 20 19 19 19 19 19 20 19 20 20 21 22 23 24 25 26 27 27 27 27 27 27 27 27 27 28 28 28 29 29 30 30 31 31 32 32 33 33 33 34 34 34 35 35
26 26 25 25 25 24 24 24 24 24 23 23 23 23 23 23 23 23 23 23 23 23 24 24 24 25 25 24 24 24 24 24 24 24 24 23 22 21 20 20 19 19 19 19 19 19 19 19 20 20 20 20 21 21 22 23 24 25 26 27 27 27 27 27 27 27 27 27 28 28 28 29 29 30 31 31 31 32 32 32 32 33 33 33 34 34
26 25 25 25 24 24 24 24 24 23 23 23 23 23 23 23 23 23 23 23 23 24 24 24 25 25 25 24 24 24 24 23 23 23 23 22 21 21 20 19 19 19 19 19 20 19 19 20 20 21 21 21 21 21 21 22 23 23 24 25 25 26 26 27 27 27 27 27 27 28 28 28 29 29 30 30 31 31 31 31 32 32 32 33 33 33
25 25 25 24 24 24 24 24 23 23 23 23 23 23 23 23 23 23 23 24 24 24 24 24 24 24 24 24 24 23 23 22 22 22 21 21 20 20 20 19 19 19 19 19 20 20 20 20 20 21 21 21 21 22 22 22 22 22 23 23 23 24 25 26 26 26 27 27 27 27 28 28 28 29 29 30 30 30 30 31 31 31 32 32 32 32
25 25 24 24 24 24 24 24 23 23 23 23 24 24 24 24 24 24 24 24 24 24 24 24 24 24 24 23 23 22 22 21 21 20 20 20 20 20 19 19 19 19 19 19 20 20 20 21 21 21 21 22 22 22 22 22 22 22 22 21 21 22 23 24 25 26 26 27 27 27 27 28 28 28 28 29 29 29 30 30 31 31 31 31 31 31
25 25 24 24 24 24 24 24 23 23 23 23 24 24 24 24 24 24 24 24 24 24 24 24 24 23 23 23 22 22 21 21 20 20 20 19 19 19 19 19 19 19 19 19 20 20 21 21 22 22 22 22 22 22 22 22 22 22 21 20 20 20 22 23 24 25 26 26 27 27 27 27 27 27 28 28 29 29 30 30 30 31 31 31 31 31
25 25 25 25 24 24 24 24 24 23 23 24 24 24 24 24 24 24 24 24 24 24 23 23 23 23 22 22 21 21 20 20 20 19 19 19 19 19 19 19 19 19 19 19 20 21 21 22 23 23 23 23 23 23 22 22 22 22 22 21 20 20 21 22 24 25 26 26 27 27 27 27 27 27 27 28 28 29 30 30 31 31 31 31 31 30
25 25 25 24 24 24 24 24 24 24 24 24 24 24 24 24 24 24 24 24 23 23 23 22 22 22 21 21 20 20 20 19 19 19 19 19 19 19 19 18 19 19 19 20 20 21 22 22 23 24 24 23 23 23 22 22 22 22 22 21 21 21 21 22 23 25 26 27 27 27 27 27 27 27 27 28 28 29 30 30 31 31 31 30 30 30
26 25 25 24 24 24 24 24 24 24 24 24 24 24 24 24 24 24 23 23 22 22 22 22 22 21 21 20 20 19 19 19 19 19 19 19 19 19 19 19 19 19 20 20 21 21 22 23 23 24 24 24 24 23 22 22 22 22 22 22 22 22 22 23 24 25 26 26 27 27 28 28 27 27 27 28 29 29 30 30 30 30 30 30 29 29
25 25 25 24 24 24 24 24 24 24 24 24 24 24 24 23 23 23 23 22 22 22 21 21 21 21 20 19 19 19 19 19 19 19 19 19 19 19 19 19 19 20 20 21 21 22 22 22 23 23 24 24 24 24 23 22 22 22 23 23 23 23 24 24 24 25 26 26 27 27 28 28 28 28 28 28 29 29 30 30 30 29 29 29 28 28
25 25 24 24 24 24 24 24 24 24 23 24 24 23 23 23 23 23 22 22 21 21 21 21 20 20 19 19 19 19 19 19 19 19 19 19 19 19 19 20 20 20 21 21 21 22 22 22 23 23 24 24 24 24 24 23 23 23 23 23 24 24 25 25 25 26 26 27 27 27 28 28 28 29 29 29 29 29 29 29 28 28 28 27 27 27
25 25 24 24 24 24 24 24 24 23 23 23 23 23 23 22 22 22 22 21 21 20 20 20 20 19 19 18 18 19 19 19 19 19 19 19 20 20 20 20 20 21 21 21 22 22 22 22 23 23 23 23 23 24 24 24 24 24 24 24 24 25 25 26 26 27 27 27 27 28 28 29 29 29 29 29 29 29 28 28 27 27 26 26 26 26
24 24 24 24 24 24 24 23 23 23 23 23 22 22 22 22 22 22 21 21 20 20 19 19 19 19 19 18 18 19 19 19 19 19 20 20 20 20 20 20 21 21 21 21 22 22 22 22 23 23 23 23 23 24 24 24 25 25 25 25 25 25 25 26 26 26 27 27 28 28 29 29 30 30 30 30 30 29 28 26 26 26 26 26 26 26
24 24 24 24 24 23 23 23 23 23 22 22 22 21 22 21 21 21 20 20 19 19 19 19 19 18 18 18 18 19 19 19 19 20 20 21 21 21 21 21 21 21 22 22 22 22 22 22 23 24 24 24 24 24 24 24 25 26 26 26 26 26 25 25 26 26 27 27 28 28 29 30 30 31 31 31 30 29 27 25 24 24 25 25 25 25
24 24 23 23 23 23 23 22 22 22 21 21 21 21 21 21 20 20 19 19 19 19 18 18 18 18 18 18 19 19 19 20 20 20 21 21 21 21 21 21 22 22 22 22 22 22 22 22 23 24 24 24 24 24 24 24 25 26 26 26 26 26 26 25 25 26 26 27 27 28 29 30 31 32 32 32 31 29 26 24 23 23 24 24 25 25
23 23 23 22 22 22 21 21 21 20 20 20 20 20 20 20 20 19 19 19 18 18 18 18 18 18 18 19 19 19 20 20 20 21 21 21 21 22 22 22 22 22 22 22 22 22 22 22 22 23 24 25 25 24 24 24 25 26 26 26 27 26 26 26 26 26 26 27 27 28 29 30 31 32 32 32 31 29 27 24 23 23 23 24 24 25
22 22 21 21 21 20 20 20 20 19 19 19 19 19 19 19 19 19 18 18 18 18 18 18 18 18 19 19 19 20 20 21 21 21 22 22 22 22 22 22 23 23 23 23 22 22 21 21 21 22 24 25 25 25 25 25 25 26 26 26 27 27 27 26 26 26 26 27 27 28 29 30 31 32 32 32 31 29 27 25 23 23 23 24 24 24
Wind_Direction
256 252 248 245 242 240 239 240 242 246 250 253 254 253 251 249 246 242 239 239 240 244 249 253 256 259 260 260 261 261 261 262 263 265 267 269 270 272 273 274 275 276 277 277 278 278 279 279 280 280 280 281 281 282 282 282 281 282 282 283 284 285 285 286 286 286 286 287 288 290 292 294 295 296 297 298 298 298 299 299 299 299 299 298 298 298
252 248 246 245 244 243 243 245 246 249 251 253 253 252 249 244 239 236 238 244 249 253 255 256 256 256 256 257 257 259 260 262 265 267 269 271 272 273 273 274 274 275 275 276 276 277 278 278 279 279 280 281 281 282 282 282 282 282 283 283 284 284 284 285 286 287 288 290 292 293 294 295 295 296 297 297 298 298 298 298 298 298 298 298 298 298
247 244 243 243 244 245 246 246 247 248 249 249 248 244 239 234 231 232 240 248 251 252 253 253 254 254 255 255 257 259 261 264 266 269 270 271 272 273 273 273 273 274 275 275 276 276 277 278 278 279 279 280 281 282 283 283 283 283 283 283 284 284 285 286 288 289 291 292 293 294 294 295 295 296 296 297 297 297 297 297 297 297 298 298 298 298
239 240 240 241 241 242 243 243 242 241 240 238 235 231 227 224 225 231 239 245 247 248 249 250 251 252 253 255 257 260 263 265 268 270 271 271 272 272 273 273 274 274 275 275 276 276 277 277 278 279 279 281 282 283 284 284 284 283 283 283 284 285 286 287 289 290 291 292 292 293 294 294 295 295 296 296 296 296 297 297 297 297 298 298 298 299
232 233 233 233 232 232 232 232 232 231 228 225 222 220 220 223 227 233 238 241 244 246 247 248 249 250 252 256 260 263 266 268 269 271 272 272 273 273 273 274 274 274 275 275 276 277 277 278 279 280 281 282 283 283 283 282 282 282 282 283 284 285 286 288 289 290 291 292 292 293 294 294 295 295 295 296 296 296 296 297 297 298 298 299 299 299
222 219 218 216 214 214 215 217 219 220 218 218 218 220 224 228 231 235 238 240 242 244 245 247 249 252 256 261 265 267 269 270 271 272 273 273 273 274 274 274 274 275 275 276 276 277 279 280 282 283 283 283 283 282 281 280 281 281 283 284 285 286 287 289 290 291 291 292 293 294 294 295 295 295 295 296 296 296 297 297 298 298 299 299 300 300
208 204 202 202 204 205 205 206 209 213 216 219 222 225 228 231 233 236 238 240 241 244 246 250 254 258 262 265 267 269 270 271 271 272 273 273 274 274 274 274 275 275 276 276 278 279 280 282 282 283 282 282 281 281 281 281 282 283 285 286 287 288 289 290 291 292 292 293 294 294 295 295 295 295 296 296 296 297 297 298 299 299 299 300 300 300
203 199 199 202 206 207 206 206 208 211 216 221 224 227 230 232 234 236 238 240 243 246 250 255 259 262 264 265 266 267 268 269 270 271 272 273 274 275 275 276 277 277 278 279 279 280 280 280 280 280 280 280 280 281 282 283 285 286 287 288 289 289 290 291 292 292 293 293 294 294 295 295 295 296 296 296 297 298 298 299 299 300 300 300 300 301
204 204 204 206 209 211 211 212 213 216 219 222 225 227 230 232 234 237 240 244 247 251 255 258 260 262 263 264 265 266 267 268 270 271 273 274 276 277 278 279 279 280 281 281 281 280 279 279 279 279 280 281 282 283 284 285 286 287 288 289 290 291 291 292 292 293 293 294 294 294 295 295 296 296 297 297 298 298 299 299 300 300 300 301 301 301
205 206 207 208 209 211 213 215 217 219 222 224 226 227 230 233 236 240 244 248 251 254 257 259 260 261 263 264 265 266 268 270 272 273 275 276 277 279 280 280 281 282 282 282 282 281 280 280 280 281 282 283 284 285 286 287 288 288 289 290 291 291 292 292 293 293 294 294 295 295 295 296 296 297 298 298 299 299 300 300 300 301 301 301 301 301
205 206 207 207 208 208 210 213 216 218 220 224 226 229 231 235 239 243 247 251 254 257 259 260 261 262 263 265 267 269 271 272 274 275 277 278 279 280 280 281 281 281 282 282 282 281 281 282 282 283 283 284 285 286 287 288 289 289 290 290 291 292 292 293 293 294 294 295 295 296 296 297 298 298 299 299 299 300 300 300 301 301 301 301 302 302
204 205 205 205 205 206 207 210 211 213 216 221 225 228 232 235 240 245 249 253 256 259 260 261 263 264 265 267 269 271 273 274 275 277 278 278 279 279 279 280 280 280 281 281 281 282 282 282 283 284 284 285 286 287 288 289 290 290 291 291 292 292 293 293 294 295 295 296 296 297 297 298 298 299 299 300 300 300 301 301 301 302 302 302 302 302
203 204 204 204 203 204 206 209 211 214 216 220 224 229 234 238 242 248 254 258 261 262 264 265 266 267 269 270 272 273 274 275 276 277 277 278 278 278 279 279 280 280 281 281 282 282 283 283 284 285 286 287 288 289 289 290 290 291 291 292 293 293 294 295 295 296 296 297 297 298 298 299 299 299 300 300 301 301 302 302 302 302 302 302 302 302
204 205 205 205 205 206 208 212 215 219 222 225 230 235 241 246 250 255 261 264 266 267 269 271 271 272 273 274 275 275 275 275 276 276 277 277 277 278 279 280 280 281 281 282 282 283 284 285 286 286 287 288 288 289 289 290 290 291 292 293 294 294 295 296 296 297 297 298 298 299 299 299 300 300 301 301 301 302 302 303 303 303 303 302 302 302
208 208 208 208 209 211 215 220 225 230 234 237 242 246 251 255 259 262 265 268 269 271 272 274 275 275 275 276 276 276 276 276 276 276 276 277 278 278 279 280 280 281 281 282 283 284 285 285 286 287 288 288 288 289 289 290 291 292 293 294 295 295 296 297 297 298 298 298 299 299 300 300 300 301 301 302 302 303 303 303 303 303 302 302 302 301
214 213 213 214 216 220 224 230 236 242 246 249 252 256 260 261 263 265 266 268 270 272 273 274 275 275 276 276 276 276 276 276 276 276 277 278 278 279 279 280 280 281 281 282 283 284 285 286 287 287 288 288 289 289 290 291 292 293 294 295 296 296 297 297 298 298 298 299 299 300 300 301 301 302 302 303 303 303 303 303 303 302 302 302 302 302
221 221 221 223 227 231 234 239 244 248 252 254 257 259 261 262 264 265 266 268 270 271 271 272 273 274 274 275 275 276 276 276 277 277 277 278 279 279 280 280 281 281 282 283 284 285 286 287 287 288 288 289 289 290 291 292 293 294 295 296 296 297 297 298 298 298 299 299 300 300 301 302 302 303 303 303 303 303 303 303 303 303 302 302 302 303
229 230 232 234 236 239 242 245 248 252 254 256 258 259 261 262 264 266 267 268 269 270 271 271 272 272 273 274 275 275 275 276 277 277 278 279 279 280 280 281 281 282 283 284 285 286 286 287 287 288 289 289 290 291 292 293 294 295 296 297 297 297 298 298 298 299 299 300 300 301 302 302 303 303 304 304 304 304 304 303 303 303 304 304 304 304
238 239 241 243 245 246 248 250 253 255 257 258 259 261 262 264 266 267 268 269 270 270 271 271 272 272 272 273 273 274 275 276 277 278 278 279 280 280 281 282 282 283 284 285 286 286 287 287 288 289 290 290 291 292 293 294 295 296 297 297 297 298 298 298 299 299 300 301 301 302 303 303 304 304 304 304 305 304 305 305 305 305 306 306 307 307
247 248 249 251 252 253 255 256 257 258 259 260 261 262 263 265 267 267 268 269 269 270 271 271 271 271 271 271 272 273 274 275 276 277 278 279 280 280 281 282 283 283 284 285 286 287 288 288 289 290 291 292 293 294 295 296 296 297 297 297 297 297 298 298 299 300 301 302 302 303 304 305 305 305 306 306 306 306 306 307 307 308 308 309 309 309
252 254 255 256 257 257 258 259 259 260 260 261 262 264 264 265 266 266 267 267 268 269 269 269 269 270 270 270 271 272 273 275 276 277 278 279 280 280 281 282 283 284 285 286 287 288 289 289 290 291 292 293 294 295 295 296 296 296 297 297 297 298 298 299 300 301 302 303 304 305 306 306 307 307 307 308 308 308 309 309 310 310 311 311 311 311
252 253 254 255 255 255 255 256 257 258 259 260 261 262 262 263 263 264 264 265 265 266 266 267 268 268 269 270 271 272 273 274 275 277 278 279 279 280 281 283 283 284 286 287 288 289 289 290 291 292 293 293 294 295 295 296 296 296 296 297 298 299 300 301 302 304 305 306 307 307 308 308 309 309 310 310 310 311 311 311 312 312 312 312 312 312
249 250 251 252 252 252 253 253 254 255 257 258 258 259 259 260 260 261 262 262 263 263 264 265 266 268 269 270 271 273 274 275 276 277 278 278 279 280 282 283 284 285 286 288 289 290 290 291 291 292 293 294 294 295 295 295 296 296 297 298 299 301 302 304 305 306 307 308 309 310 310 311 311 311 312 312 312 312 312 313 313 313 312 312 312 312
248 249 250 251 252 253 253 254 254 255 256 257 257 258 258 259 259 260 260 261 261 262 264 265 266 268 269 271 272 273 274 275 276 277 278 278 280 281 282 283 285 286 287 288 289 289 290 290 291 292 293 293 294 295 295 296 296 297 299 300 302 304 305 307 308 309 310 310 311 311 312 312 312 312 313 313 313 313 313 313 313 313 312 312 312 311
250 250 251 253 254 255 256 256 257 257 257 257 257 257 257 258 258 259 260 260 261 263 264 266 267 268 270 271 273 273 274 275 276 277 278 279 280 282 283 284 285 286 287 287 288 289 289 290 291 291 292 293 294 295 296 297 298 299 301 303 305 306 307 309 310 310 311 311 312 312 312 312 313 313 313 313 313 313 313 313 313 312 312 312 312 312
251 252 253 254 255 256 257 258 258 257 257 257 256 256 257 257 258 259 260 261 262 263 265 266 267 268 270 271 272 273 274 275 276 277 278 280 281 282 283 284 285 285 286 287 288 288 289 289 290 291 292 293 293 295 297 298 300 302 304 305 307 308 309 310 310 311 311 311 312 312 312 312 312 313 313 313 313 313 312 312 312 312 312 312 312 312
253 253 254 254 255 256 256 257 257 256 256 256 256 256 256 257 258 259 260 261 262 264 265 266 267 268 270 271 272 273 275 276 277 277 279 281 282 282 283 284 284 284 285 286 287 288 288 289 290 291 292 293 294 296 298 300 302 304 305 306 307 308 309 309 310 310 310 311 311 311 311 312 312 312 312 312 312 312 312 312 312 312 313 313 312 312
255 255 255 255 255 255 255 255 255 255 255 255 255 255 255 256 257 258 259 261 262 263 264 265 267 268 270 271 272 274 275 277 277 278 280 281 281 281 283 284 284 284 284 286 287 287 287 288 290 292 293 294 296 298 300 302 303 304 305 306 307 308 308 309 309 309 310 310 310 311 311 311 311 311 312 311 312 312 312 312 313 313 313 313 313 312
257 257 256 255 255 254 254 254 254 253 253 253 254 254 255 256 257 258 259 261 262 263 264 265 267 269 270 272 273 274 276 277 278 279 280 281 280 281 282 284 283 283 284 285 287 287 287 287 290 293 295 296 298 299 301 302 303 304 305 305 306 306 307 307 308 308 308 309 309 310 310 310 311 311 311 311 311 312 312 312 313 313 313 313 313 312
258 257 256 255 254 253 253 252 252 252 252 252 252 253 254 255 257 258 260 261 262 263 264 266 268 269 271 272 274 275 276 276 277 279 280 280 280 281 282 283 283 282 283 285 286 286 286 287 290 293 295 297 298 299 301 301 302 302 303 303 304 304 305 306 306 307 307 308 308 309 309 309 310 310 310 311 311 312 312 312 313 313 312 312 312 312
257 256 255 254 253 252 251 250 250 250 250 251 252 253 255 256 257 259 260 262 263 264 266 268 269 270 272 273 275 276 276 277 278 279 280 280 280 280 282 282 282 282 283 283 284 286 287 289 290 292 293 295 297 298 299 300 300 300 301 301 302 302 303 304 305 305 306 307 307 308 308 308 308 309 310 310 311 311 312 312 312 311 311 311 311 311
255 254 253 252 251 250 249 249 249 249 250 252 253 254 255 257 258 260 261 263 264 266 267 269 271 272 272 274 275 276 276 277 278 279 279 279 279 280 281 282 282 282 283 283 283 284 287 288 290 291 291 293 294 296 297 298 298 298 299 300 300 301 302 303 304 304 305 305 306 306 306 307 307 308 309 310 310 311 311 310 310 310 310 310 310 310
254 253 252 251 250 249 249 249 249 250 251 253 254 255 256 258 259 261 263 264 266 267 268 270 271 273 274 274 274 275 276 276 277 278 278 278 278 280 281 282 282 282 284 284 284 284 286 288 290 291 291 292 293 294 296 296 297 297 297 299 300 300 301 302 303 303 303 304 304 305 305 306 307 308 308 309 309 309 309 309 309 309 309 309 310 310
252 251 250 249 249 249 249 249 250 251 252 253 255 256 257 259 260 262 264 265 267 268 269 271 272 273 274 275 275 275 275 276 276 277 277 277 278 279 281 281 282 282 284 284 285 285 286 287 289 290 291 292 292 293 294 295 296 296 297 298 299 300 300 301 302 302 302 302 303 303 304 305 306 307 308 308 308 308 308 308 308 309 309 309 309 309
250 250 249 249 248 249 249 250 251 252 253 254 255 257 258 260 262 263 265 266 268 269 270 271 272 274 274 275 275 274 274 275 276 277 277 277 278 279 280 280 281 282 283 283 284 285 286 287 288 289 290 290 291 292 293 295 296 296 297 298 299 300 300 301 302 302 302 302 302 303 304 305 306 306 307 307 307 306 307 307 308 308 309 309 310 310
248 248 248 248 248 248 249 250 251 252 254 255 256 258 259 261 263 264 266 267 268 270 271 272 273 274 274 274 274 274 274 275 275 276 276 277 278 278 278 278 279 280 281 282 283 284 285 286 287 288 289 289 290 291 292 294 295 296 296 298 299 300 300 301 301 302 302 302 302 303 304 305 305 305 305 305 305 306 306 307 308 309 309 310 310 310
246 246 246 247 247 248 249 250 251 252 254 255 257 258 260 262 263 265 266 268 269 271 272 273 273 274 274 275 274 274 274 274 275 275 275 276 277 277 277 277 278 278 279 281 282 284 285 286 287 288 289 290 291 291 292 292 292 293 294 295 297 298 299 300 300 300 301 301 302 303 303 304 304 304 304 304 305 305 306 307 308 309 309 309 309 309
245 245 245 246 246 247 248 249 250 252 253 255 257 259 261 262 264 265 267 268 270 271 272 273 274 274 275 275 274 274 274 274 274 274 274 275 275 275 276 277 278 278 279 281 283 285 286 287 288 289 290 291 292 292 292 291 290 290 290 292 294 296 298 299 299 300 300 300 301 302 302 302 303 303 304 304 305 306 306 307 308 309 309 309 309 309
245 245 245 245 246 246 247 248 250 251 253 255 257 259 261 262 264 266 267 269 270 271 272 273 273 274 274 274 273 273 273 272 272 272 272 272 273 274 275 276 278 279 280 282 284 286 288 289 290 291 292 292 292 292 292 291 290 290 290 291 292 294 295 297 298 299 299 299 300 300 301 302 302 303 304 304 305 306 307 308 308 309 309 308 308 308
244 244 244 244 245 246 247 249 250 252 253 255 257 259 261 263 264 266 268 269 270 271 272 272 273 273 273 272 272 271 271 270 270 270 270 271 271 272 274 276 278 280 282 284 286 288 290 291 292 293 294 294 293 292 292 291 291 291 291 292 292 293 294 296 296 297 297 298 299 300 300 301 302 303 304 305 306 307 308 308 309 309 309 308 308 307
242 243 243 244 245 246 248 249 250 252 254 255 257 259 261 263 265 267 268 269 270 271 271 272 272 272 271 271 270 270 269 269 269 269 269 270 271 273 274 277 279 282 284 286 288 290 292 293 294 294 294 294 294 293 293 293 293 293 294 294 294 295 295 296 296 296 297 298 299 300 301 302 303 304 305 306 307 308 309 310 310 310 310 309 309 308
242 242 243 244 245 247 248 250 251 252 254 256 258 260 262 264 265 267 268 268 269 269 270 270 270 269 269 268 268 268 268 267 268 268 269 270 272 274 276 279 281 284 286 288 290 292 293 293 294 294 294 294 294 294 294 295 295 296 297 297 298 297 297 297 297 297 298 299 300 301 302 303 305 306 307 308 309 310 310 311 311 311 311 310 310 309
241 242 244 245 246 248 249 250 252 253 255 257 259 261 262 264 265 266 267 267 268 268 268 268 268 267 266 266 266 267 267 267 268 269 270 272 274 276 279 281 283 286 288 289 291 292 292 293 293 294 294 295 295 296 296 297 297 298 299 299 299 299 299 299 298 299 299 301 302 303 304 305 306 307 308 309 310 311 312 312 312 312 311 311 310 310
242 243 245 246 247 248 249 251 252 254 256 258 260 261 263 264 265 266 266 266 267 267 267 266 266 266 265 264 265 266 266 268 269 271 273 275 277 279 281 284 286 287 288 289 290 291 292 292 293 294 295 296 297 297 298 298 298 299 300 300 301 301 301 301 301 301 301 302 303 304 305 306 306 308 309 310 312 313 313 313 313 312 311 310 310 309
243 244 245 246 248 249 250 252 253 255 257 259 260 262 263 264 265 265 265 265 265 265 264 264 264 264 264 264 264 265 266 268 270 273 275 277 279 281 282 284 285 287 288 289 290 291 292 292 293 294 295 296 297 298 299 299 299 299 300 301 302 302 303 303 303 303 303 304 304 305 305 306 307 308 309 311 312 313 314 314 313 312 310 309 309 309
244 245 246 247 248 250 251 253 255 256 258 259 260 261 262 263 263 264 263 263 263 262 262 262 262 262 263 263 265 266 267 268 270 272 274 276 278 279 281 282 284 286 287 289 290 292 293 294 294 295 295 296 297 297 298 299 300 300 300 301 302 303 304 304 304 305 305 305 305 306 306 307 307 309 310 312 313 314 315 314 313 311 310 309 309 309
245 246 247 248 249 251 252 254 255 257 258 259 260 260 261 261 262 262 262 261 261 260 260 261 261 262 263 264 265 267 268 270 272 273 274 276 277 279 281 283 285 287 288 290 292 293 295 296 296 296 296 296 296 297 298 298 299 300 301 301 302 303 304 304 304 305 305 305 306 306 307 307 308 309 310 312 313 315 315 315 313 312 310 309 309 310
246 247 248 249 250 251 253 254 255 256 257 258 258 259 259 259 259 259 259 259 259 259 259 260 261 262 263 265 266 268 270 272 273 275 276 278 280 282 284 286 288 289 291 292 293 295 295 296 295 295 295 295 295 296 297 297 298 299 300 301 302 303 303 304 304 305 305 306 306 307 307 308 309 310 311 312 313 314 315 315 314 312 311 310 310 311
247 247 248 249 250 251 252 253 254 255 256 256 256 257 257 258 258 257 257 258 258 258 259 260 261 262 264 265 267 269 270 272 273 275 276 278 281 283 285 287 289 290 291 292 293 294 294 295 295 294 293 294 294 295 295 296 297 298 299 300 301 302 303 304 304 305 305 306 307 307 308 309 310 310 311 312 313 314 315 316 315 313 312 311 311 311
247 248 248 249 250 250 251 252 253 253 254 254 255 255 255 256 256 256 256 257 258 258 259 260 262 263 265 266 268 269 270 272 273 275 277 279 281 284 286 288 289 290 291 291 292 292 293 293 293 293 293 293 293 294 295 296 296 297 298 300 302 303 304 305 306 306 306 307 307 308 308 309 310 310 311 312 313 314 315 316 316 314 312 311 311 312
247 247 248 248 249 249 250 251 251 252 252 253 253 254 254 255 256 256 257 257 258 259 260 261 262 263 265 266 268 269 271 272 274 276 278 281 283 285 287 288 288 289 289 290 290 290 290 289 290 291 293 293 293 295 296 296 297 297 299 300 302 304 305 306 307 307 307 307 308 308 308 309 310 310 311 312 313 314 314 315 315 314 313 312 312 312
Height
3066 3067 3069 3069 3070 3071 3072 3074 3075 3076 3077 3078 3078 3079 3080 3083 3085 3086 3086 3086 3086 3087 3088 3089 3089 3090 3091 3091 3092 3093 3093 3094 3094 3094 3094 3094 3094 3094 3094 3094 3094 3094 3094 3094 3094 3094 3094 3094 3093 3093 3093 3092 3092 3091 3090 3090 3089 3089 3088 3087 3087 3086 3085 3084 3084 3082 3081 3080 3079 3078 3076 3075 3074 3073 3071 3070 3069 3067 3066 3064 3063 3062 3060 3059 3058 3056
3064 3065 3066 3067 3068 3069 3069 3071 3073 3074 3074 3074 3075 3077 3079 3081 3082 3082 3083 3083 3084 3085 3086 3087 3088 3088 3089 3089 3090 3090 3091 3091 3091 3091 3092 3092 3092 3092 3092 3092 3092 3092 3092 3092 3092 3092 3091 3091 3091 3090 3090 3089 3089 3089 3088 3087 3087 3086 3085 3084 3084 3083 3082 3081 3080 3079 3078 3077 3075 3074 3073 3072 3070 3069 3068 3067 3065 3064 3062 3061 3059 3058 3057 3055 3054 3053
3061 3062 3063 3064 3065 3066 3067 3068 3070 3071 3072 3073 3074 3075 3077 3078 3079 3080 3080 3081 3083 3084 3085 3085 3086 3086 3087 3088 3088 3088 3089 3089 3089 3089 3089 3089 3089 3090 3090 3090 3089 3089 3089 3089 3089 3089 3089 3089 3088 3088 3087 3087 3086 3086 3085 3084 3084 3083 3082 3081 3081 3080 3079 3078 3077 3076 3074 3073 3072 3071 3069 3069 3067 3066 3064 3063 3062 3060 3059 3058 3056 3054 3053 3052 3050 3049
3059 3059 3060 3061 3063 3064 3064 3066 3068 3069 3070 3071 3072 3074 3074 3075 3077 3078 3079 3080 3081 3082 3083 3083 3084 3084 3085 3085 3086 3086 3086 3086 3087 3087 3087 3087 3087 3087 3087 3087 3087 3087 3087 3087 3086 3086 3086 3086 3085 3085 3084 3084 3084 3083 3082 3082 3081 3080 3079 3079 3078 3077 3076 3074 3074 3073 3071 3070 3069 3068 3066 3065 3064 3063 3061 3060 3059 3057 3056 3054 3053 3051 3050 3049 3047 3045
3057 3057 3058 3059 3060 3062 3063 3065 3066 3067 3068 3069 3070 3071 3073 3074 3075 3076 3078 3078 3079 3079 3080 3081 3082 3082 3083 3083 3083 3084 3084 3084 3084 3084 3084 3085 3085 3085 3085 3084 3084 3084 3084 3084 3084 3084 3083 3083 3083 3082 3082 3081 3080 3080 3079 3079 3078 3077 3076 3075 3074 3074 3073 3072 3071 3069 3068 3067 3066 3064 3063 3062 3061 3059 3058 3057 3055 3054 3052 3051 3049 3048 3046 3045 3044 3042
3056 3057 3058 3059 3059 3061 3062 3064 3065 3066 3067 3068 3069 3070 3072 3073 3074 3074 3075 3076 3077 3077 3078 3079 3079 3080 3080 3080 3081 3081 3081 3082 3082 3082 3082 3082 3083 3082 3082 3082 3082 3082 3082 3081 3081 3081 3080 3080 3079 3079 3078 3078 3077 3077 3076 3075 3075 3074 3073 3073 3072 3071 3070 3069 3067 3066 3065 3064 3062 3061 3060 3059 3057 3056 3055 3053 3052 3050 3049 3048 3046 3044 3043 3042 3040 3039
3055 3056 3058 3059 3059 3060 3061 3062 3063 3064 3065 3067 3068 3069 3069 3070 3071 3072 3073 3074 3074 3075 3076 3076 3077 3078 3078 3078 3079 3079 3079 3079 3080 3080 3080 3080 3080 3080 3080 3080 3079 3079 3079 3079 3078 3078 3077 3077 3076 3076 3075 3075 3074 3074 3073 3073 3072 3071 3070 3069 3069 3068 3066 3065 3064 3063 3062 3060 3059 3058 3057 3055 3054 3053 3051 3050 3049 3047 3046 3044 3043 3041 3039 3038 3037 3035
3053 3054 3056 3057 3058 3059 3060 3061 3062 3063 3064 3065 3065 3066 3067 3068 3069 3070 3071 3072 3072 3073 3074 3074 3075 3075 3076 3077 3077 3077 3077 3077 3078 3078 3078 3078 3078 3078 3077 3077 3077 3076 3076 3075 3075 3074 3074 3074 3074 3073 3073 3072 3072 3071 3070 3070 3069 3068 3067 3066 3065 3064 3063 3062 3061 3059 3058 3057 3056 3055 3054 3052 3051 3049 3048 3047 3045 3044 3042 3041 3039 3038 3036 3035 3034 3032
3050 3052 3053 3055 3056 3057 3058 3059 3060 3062 3063 3063 3064 3064 3065 3066 3067 3068 3069 3070 3070 3071 3072 3073 3073 3074 3074 3074 3074 3075 3075 3075 3075 3075 3075 3075 3075 3074 3074 3074 3074 3073 3073 3073 3072 3072 3071 3071 3070 3070 3069 3069 3069 3068 3067 3067 3066 3065 3064 3063 3062 3061 3060 3059 3058 3056 3055 3054 3053 3052 3050 3049 3048 3046 3045 3043 3042 3040 3039 3038 3036 3035 3034 3032 3030 3029
3049 3050 3051 3053 3054 3055 3056 3058 3059 3059 3060 3061 3062 3063 3064 3064 3065 3066 3067 3068 3069 3069 3070 3071 3071 3072 3072 3072 3072 3072 3072 3072 3072 3073 3072 3072 3072 3072 3071 3071 3070 3070 3070 3069 3069 3069 3068 3068 3068 3067 3067 3066 3066 3065 3064 3064 3063 3062 3061 3060 3059 3058 3057 3055 3054 3053 3052 3051 3050 3049 3047 3046 3044 3043 3041 3040 3039 3037 3036 3034 3033 3032 3030 3029 3028 3026
3046 3048 3049 3050 3051 3053 3054 3055 3056 3057 3058 3059 3060 3061 3062 3063 3063 3064 3065 3065 3066 3067 3068 3068 3069 3069 3069 3069 3069 3069 3069 3069 3069 3069 3069 3069 3069 3069 3069 3068 3068 3067 3067 3067 3066 3066 3065 3065 3065 3064 3064 3063 3063 3062 3061 3060 3059 3058 3057 3056 3055 3054 3053 3052 3051 3050 3049 3048 3046 3045 3044 3042 3041 3039 3038 3037 3035 3034 3033 3031 3030 3029 3028 3026 3025 3024
3044 3045 3047 3048 3049 3050 3051 3053 3054 3055 3056 3057 3058 3059 3059 3060 3061 3062 3063 3063 3064 3064 3065 3065 3066 3066 3067 3067 3067 3067 3067 3067 3067 3066 3066 3066 3066 3066 3065 3065 3065 3064 3064 3064 3064 3063 3063 3062 3062 3061 3061 3060 3059 3059 3058 3057 3056 3055 3054 3053 3052 3051 3050 3049 3048 3047 3045 3044 3043 3042 3040 3039 3038 3036 3035 3034 3032 3031 3030 3029 3027 3026 3025 3024 3022 3021
3043 3044 3045 3046 3047 3048 3049 3050 3051 3052 3053 3054 3055 3056 3057 3057 3058 3059 3059 3060 3061 3061 3062 3062 3063 3064 3064 3064 3064 3064 3064 3064 3064 3064 3064 3064 3063 3063 3063 3062 3062 3061 3061 3061 3060 3060 3060 3059 3059 3058 3057 3057 3056 3055 3054 3053 3052 3051 3050 3050 3049 3048 3047 3046 3044 3043 3042 3041 3039 3038 3037 3035 3034 3033 3032 3030 3029 3028 3027 3026 3024 3023 3022 3021 3019 3019
3041 3042 3043 3044 3045 3046 3048 3049 3050 3051 3051 3052 3053 3054 3054 3054 3055 3056 3056 3057 3058 3059 3059 3059 3060 3060 3061 3061 3061 3062 3062 3061 3061 3061 3061 3061 3061 3060 3060 3059 3059 3058 3059 3058 3057 3057 3057 3056 3055 3055 3054 3054 3053 3052 3051 3050 3049 3048 3047 3046 3045 3044 3044 3042 3041 3040 3039 3037 3036 3035 3034 3032 3031 3030 3029 3028 3026 3025 3024 3023 3022 3020 3019 3018 3017 3016
3041 3042 3042 3043 3044 3045 3046 3047 3048 3049 3049 3050 3051 3051 3051 3052 3052 3053 3054 3054 3055 3056 3056 3057 3057 3058 3058 3059 3059 3059 3059 3058 3058 3058 3058 3058 3058 3058 3058 3057 3056 3055 3056 3055 3054 3054 3054 3053 3053 3052 3051 3050 3050 3049 3048 3047 3046 3045 3044 3043 3042 3041 3040 3039 3038 3036 3035 3034 3033 3032 3030 3029 3028 3027 3026 3025 3024 3023 3021 3020 3019 3018 3017 3016 3014 3014
3040 3041 3041 3042 3043 3044 3045 3045 3046 3047 3047 3048 3049 3049 3049 3049 3050 3051 3051 3052 3052 3053 3054 3055 3055 3055 3055 3056 3056 3056 3056 3055 3055 3055 3055 3055 3055 3055 3055 3054 3053 3053 3053 3053 3052 3051 3050 3050 3049 3049 3048 3047 3046 3046 3045 3044 3043 3042 3041 3040 3039 3038 3037 3035 3034 3033 3032 3031 3030 3029 3028 3027 3025 3024 3023 3022 3021 3020 3019 3018 3017 3015 3014 3013 3012 3011
3040 3041 3041 3042 3042 3043 3043 3044 3044 3045 3045 3046 3047 3047 3047 3048 3048 3049 3049 3049 3050 3050 3051 3052 3053 3053 3053 3053 3053 3053 3053 3053 3052 3052 3052 3052 3052 3052 3052 3052 3050 3049 3049 3050 3049 3049 3048 3047 3046 3046 3045 3044 3043 3042 3042 3041 3040 3039 3038 3037 3036 3035 3034 3032 3031 3030 3029 3028 3027 3026 3025 3024 3023 3022 3021 3019 3019 3017 3016 3015 3014 3013 3012 3011 3010 3009
3039 3040 3041 3041 3041 3042 3042 3043 3043 3044 3044 3044 3045 3045 3045 3045 3046 3046 3047 3047 3047 3048 3048 3049 3049 3050 3051 3051 3050 3050 3050 3050 3049 3049 3049 3050 3049 3049 3049 3049 3048 3047 3047 3047 3046 3046 3045 3044 3043 3043 3042 3041 3040 3039 3039 3038 3037 3036 3035 3034 3033 3032 3030 3029 3029 3027 3026 3025 3024 3024 3022 3021 3020 3019 3018 3017 3016 3015 3014 3013 3012 3011 3009 3008 3007 3006
3037 3038 3039 3040 3040 3040 3041 3041 3041 3042 3042 3042 3043 3043 3043 3043 3044 3044 3044 3044 3045 3045 3045 3046 3047 3047 3048 3048 3048 3047 3048 3048 3047 3046 3047 3047 3047 3047 3046 3046 3045 3044 3044 3044 3044 3043 3042 3041 3040 3039 3039 3038 3037 3036 3035 3034 3034 3033 3032 3031 3030 3029 3028 3027 3026 3025 3024 3023 3022 3021 3020 3019 3018 3017 3015 3014 3014 3012 3011 3010 3009 3008 3007 3006 3004 3003
3034 3035 3036 3037 3038 3038 3039 3039 3039 3039 3039 3040 3040 3040 3040 3041 3041 3041 3042 3042 3042 3043 3043 3044 3044 3044 3045 3045 3045 3045 3045 3045 3045 3044 3044 3044 3044 3044 3044 3043 3042 3041 3041 3041 3040 3040 3039 3038 3037 3036 3035 3034 3034 3033 3032 3031 3030 3029 3029 3028 3027 3026 3025 3024 3023 3022 3021 3020 3019 3018 3017 3016 3015 3014 3013 3012 3011 3010 3009 3008 3006 3005 3004 3003 3001 3000
3032 3033 3034 3034 3035 3035 3036 3036 3037 3037 3037 3037 3038 3038 3038 3038 3039 3039 3039 3039 3040 3040 3040 3041 3041 3042 3043 3043 3043 3043 3043 3043 3042 3041 3041 3041 3041 3041 3041 3041 3040 3039 3038 3038 3038 3037 3036 3034 3034 3033 3032 3032 3031 3030 3029 3029 3028 3027 3026 3025 3024 3023 3022 3021 3020 3019 3019 3018 3017 3016 3014 3014 3013 3012 3010 3009 3008 3007 3006 3005 3004 3002 3001 3000 2999 2997
3029 3030 3031 3032 3033 3033 3033 3034 3034 3034 3035 3035 3035 3035 3036 3036 3037 3037 3037 3037 3037 3038 3038 3038 3039 3039 3040 3040 3040 3040 3040 3040 3040 3039 3039 3039 3039 3038 3039 3038 3037 3036 3035 3035 3035 3034 3033 3032 3031 3030 3029 3029 3028 3027 3026 3026 3025 3024 3023 3022 3021 3020 3019 3019 3018 3017 3016 3015 3014 3013 3012 3011 3010 3009 3008 3006 3005 3004 3003 3002 3000 2999 2998 2997 2996 2994
3026 3027 3028 3029 3030 3030 3031 3031 3032 3032 3033 3033 3033 3034 3034 3034 3034 3034 3034 3035 3035 3035 3035 3035 3036 3036 3037 3037 3037 3037 3037 3037 3037 3037 3036 3036 3035 3035 3036 3036 3035 3033 3032 3032 3032 3031 3030 3029 3028 3027 3027 3026 3025 3024 3024 3023 3022 3021 3020 3019 3019 3018 3017 3016 3015 3014 3013 3012 3011 3010 3009 3008 3007 3006 3005 3004 3002 3001 3000 2999 2998 2997 2995 2994 2993 2992
3023 3024 3025 3026 3026 3027 3028 3029 3029 3029 3030 3031 3031 3031 3032 3032 3032 3032 3032 3032 3033 3033 3033 3033 3034 3034 3034 3034 3034 3034 3034 3034 3034 3034 3034 3033 3033 3033 3033 3033 3032 3031 3030 3030 3029 3029 3027 3026 3025 3025 3024 3024 3022 3022 3021 3020 3019 3018 3018 3017 3016 3015 3014 3013 3012 3011 3010 3009 3008 3007 3006 3005 3004 3003 3002 3001 2999 2999 2997 2996 2995 2994 2993 2992 2991 2989
3020 3021 3022 3023 3023 3024 3025 3026 3027 3027 3028 3029 3029 3029 3029 3030 3030 3030 3030 3030 3030 3030 3030 3031 3031 3031 3031 3032 3032 3031 3031 3032 3032 3032 3031 3030 3030 3030 3030 3030 3030 3029 3027 3027 3027 3027 3025 3024 3023 3022 3022 3021 3020 3019 3018 3017 3016 3016 3015 3014 3013 3012 3011 3010 3009 3009 3008 3007 3006 3004 3004 3003 3001 3000 2999 2998 2997 2996 2995 2994 2993 2992 2990 2989 2988 2987
3019 3019 3020 3020 3021 3022 3023 3024 3025 3025 3026 3027 3027 3027 3028 3028 3028 3028 3028 3028 3028 3028 3028 3028 3028 3029 3029 3029 3029 3029 3029 3029 3029 3029 3029 3028 3028 3027 3027 3028 3028 3026 3024 3024 3024 3024 3023 3021 3020 3019 3019 3019 3018 3017 3016 3015 3014 3013 3012 3011 3010 3009 3009 3008 3007 3006 3005 3004 3003 3002 3001 3000 2999 2998 2997 2995 2994 2993 2992 2991 2990 2989 2988 2987 2986 2985
3017 3017 3018 3019 3019 3020 3021 3022 3023 3024 3024 3025 3025 3025 3026 3026 3025 3025 3025 3025 3025 3026 3026 3026 3026 3026 3027 3027 3027 3026 3026 3026 3026 3026 3026 3026 3025 3024 3024 3025 3025 3024 3022 3022 3022 3022 3021 3019 3018 3017 3017 3016 3015 3014 3013 3012 3011 3010 3010 3009 3008 3007 3006 3005 3004 3004 3003 3002 3001 3000 2999 2998 2997 2995 2994 2993 2992 2991 2990 2989 2988 2987 2986 2985 2984 2982
3015 3016 3016 3017 3018 3018 3019 3020 3021 3022 3023 3024 3024 3024 3024 3024 3023 3023 3023 3023 3024 3024 3023 3023 3024 3024 3024 3024 3024 3024 3024 3024 3024 3024 3024 3024 3022 3022 3022 3023 3023 3021 3020 3019 3019 3019 3018 3017 3016 3015 3014 3013 3013 3012 3011 3010 3009 3008 3007 3007 3006 3005 3004 3003 3002 3001 3000 2999 2999 2998 2996 2995 2994 2993 2992 2991 2990 2989 2988 2987 2985 2984 2983 2982 2981 2980
3014 3014 3014 3015 3016 3016 3017 3018 3019 3020 3021 3022 3022 3021 3021 3021 3021 3020 3020 3021 3021 3021 3021 3021 3021 3022 3022 3022 3022 3022 3021 3021 3021 3021 3021 3021 3019 3019 3019 3020 3019 3019 3018 3018 3017 3016 3015 3015 3014 3013 3012 3010 3010 3010 3009 3008 3007 3006 3005 3005 3004 3003 3002 3001 3000 2999 2999 2998 2996 2995 2994 2993 2992 2991 2990 2989 2987 2986 2985 2984 2983 2982 2981 2979 2978 2977
3012 3012 3013 3013 3014 3014 3015 3016 3018 3019 3019 3019 3019 3019 3019 3019 3018 3018 3018 3019 3019 3019 3019 3019 3019 3019 3019 3019 3019 3019 3019 3018 3019 3019 3019 3018 3017 3016 3017 3017 3017 3016 3016 3015 3014 3013 3013 3013 3013 3012 3010 3009 3008 3007 3007 3006 3005 3004 3004 3003 3002 3001 3000 2999 2999 2997 2996 2995 2994 2993 2992 2991 2990 2989 2988 2986 2985 2984 2983 2982 2981 2979 2978 2977 2976 2974
3010 3011 3011 3011 3012 3013 3013 3014 3015 3016 3017 3017 3017 3016 3016 3016 3016 3016 3016 3016 3016 3016 3016 3016 3017 3017 3017 3017 3017 3017 3016 3015 3016 3016 3016 3015 3014 3014 3014 3015 3014 3013 3013 3014 3013 3011 3010 3010 3010 3010 3009 3008 3006 3005 3005 3004 3004 3003 3002 3001 3000 2999 2999 2998 2997 2995 2994 2994 2992 2991 2990 2989 2988 2987 2985 2984 2983 2982 2981 2980 2979 2977 2976 2975 2974 2972
3008 3009 3009 3009 3010 3010 3011 3012 3013 3014 3014 3014 3014 3014 3014 3014 3014 3014 3014 3014 3014 3014 3014 3014 3014 3014 3014 3015 3015 3014 3013 3013 3013 3014 3014 3013 3011 3011 3012 3012 3012 3010 3010 3011 3010 3009 3009 3008 3008 3008 3008 3006 3005 3004 3003 3003 3002 3001 3000 2999 2998 2997 2997 2996 2995 2994 2993 2991 2990 2989 2988 2987 2986 2985 2984 2983 2981 2980 2979 2978 2976 2975 2974 2972 2971 2970
3006 3006 3007 3007 3008 3008 3009 3009 3010 3010 3011 3011 3011 3011 3011 3011 3011 3011 3011 3011 3011 3012 3012 3011 3011 3012 3012 3012 3012 3012 3011 3011 3011 3011 3011 3010 3009 3009 3009 3009 3009 3008 3008 3008 3008 3008 3007 3006 3006 3005 3005 3004 3004 3003 3002 3001 3000 2999 2998 2997 2996 2995 2994 2994 2993 2992 2991 2989 2989 2987 2986 2985 2984 2983 2982 2981 2980 2979 2977 2976 2974 2973 2971 2970 2969 2967
3003 3004 3004 3005 3005 3006 3006 3007 3007 3008 3008 3009 3009 3009 3009 3009 3009 3009 3009 3009 3009 3009 3009 3009 3009 3009 3009 3009 3009 3009 3009 3008 3009 3009 3009 3008 3007 3007 3007 3007 3007 3006 3006 3005 3005 3005 3005 3004 3004 3004 3003 3003 3002 3001 3000 2999 2998 2997 2996 2995 2994 2993 2992 2991 2991 2990 2989 2988 2987 2985 2984 2984 2982 2981 2980 2979 2978 2977 2975 2974 2973 2971 2969 2968 2966 2965
3001 3001 3002 3003 3003 3004 3004 3004 3005 3005 3005 3006 3006 3006 3006 3006 3006 3006 3006 3007 3007 3007 3007 3007 3007 3007 3007 3007 3007 3006 3006 3006 3006 3006 3006 3005 3005 3004 3004 3004 3004 3004 3004 3003 3003 3003 3003 3003 3002 3002 3002 3001 3000 2999 2999 2998 2996 2994 2993 2993 2992 2991 2990 2989 2988 2988 2986 2985 2984 2984 2983 2982 2980 2979 2978 2977 2976 2975 2974 2972 2970 2969 2967 2965 2964 2962
2999 2999 3000 3000 3001 3001 3002 3002 3002 3003 3003 3003 3003 3003 3004 3004 3004 3004 3004 3004 3004 3004 3004 3004 3004 3004 3004 3004 3004 3004 3004 3004 3004 3004 3003 3003 3003 3003 3002 3002 3002 3002 3002 3001 3001 3001 3001 3001 3000 3000 2999 2999 2998 2997 2996 2995 2994 2993 2992 2990 2989 2989 2987 2987 2986 2985 2984 2984 2983 2982 2981 2980 2979 2978 2976 2975 2974 2973 2972 2970 2969 2967 2965 2963 2962 2960
2996 2997 2998 2998 2999 2999 2999 2999 3000 3000 3000 3000 3001 3001 3001 3001 3002 3002 3002 3002 3002 3002 3002 3002 3002 3002 3002 3002 3002 3002 3001 3001 3001 3001 3001 3001 3000 3000 3000 3000 3000 3000 3000 3000 2999 2999 2999 2999 2998 2998 2997 2997 2996 2995 2994 2994 2993 2992 2990 2989 2988 2987 2985 2984 2984 2983 2982 2981 2980 2979 2979 2978 2977 2976 2975 2974 2972 2971 2969 2968 2966 2965 2963 2961 2959 2958
2994 2995 2995 2996 2996 2997 2997 2997 2998 2998 2998 2998 2999 2999 2999 2999 2999 2999 3000 3000 3000 3000 3000 2999 2999 2999 2999 2999 2999 2999 2999 2999 2999 2999 2999 2999 2999 2999 2998 2998 2998 2999 2998 2998 2997 2997 2997 2996 2996 2995 2995 2994 2994 2993 2992 2991 2990 2990 2989 2988 2987 2986 2984 2983 2982 2981 2980 2979 2979 2978 2977 2976 2975 2974 2973 2972 2970 2969 2968 2966 2964 2963 2961 2959 2958 2956
2992 2993 2993 2994 2994 2994 2995 2995 2995 2996 2996 2996 2996 2997 2997 2997 2997 2997 2997 2998 2998 2998 2997 2997 2997 2997 2997 2997 2997 2997 2997 2997 2997 2997 2997 2997 2997 2997 2996 2996 2996 2996 2996 2996 2995 2994 2994 2994 2993 2993 2992 2992 2991 2990 2990 2989 2988 2988 2987 2986 2985 2984 2983 2981 2980 2979 2978 2977 2977 2976 2975 2974 2973 2972 2971 2969 2968 2967 2965 2964 2962 2960 2959 2957 2955 2954
2990 2991 2991 2992 2992 2992 2993 2993 2994 2994 2994 2994 2994 2994 2995 2995 2995 2995 2995 2995 2995 2995 2995 2995 2995 2995 2995 2995 2995 2995 2995 2995 2995 2995 2995 2995 2995 2995 2995 2994 2994 2994 2994 2994 2993 2993 2992 2991 2990 2990 2989 2989 2989 2988 2987 2987 2986 2985 2984 2984 2984 2983 2982 2980 2979 2977 2976 2975 2975 2974 2973 2972 2971 2970 2969 2968 2966 2965 2963 2961 2960 2958 2956 2954 2953 2951
2988 2989 2989 2989 2990 2990 2991 2991 2991 2992 2992 2992 2993 2993 2993 2993 2993 2993 2993 2993 2993 2993 2993 2993 2993 2993 2993 2993 2993 2993 2993 2993 2993 2993 2993 2993 2993 2993 2993 2992 2992 2992 2992 2991 2991 2990 2989 2989 2988 2987 2987 2986 2986 2985 2985 2984 2983 2982 2982 2981 2981 2980 2980 2979 2977 2976 2974 2973 2973 2972 2971 2970 2969 2968 2967 2965 2964 2962 2961 2959 2957 2955 2954 2952 2950 2949
2986 2986 2987 2987 2988 2988 2989 2989 2989 2990 2990 2990 2991 2991 2991 2991 2991 2991 2991 2991 2991 2991 2991 2991 2991 2991 2991 2991 2991 2991 2991 2991 2991 2991 2991 2991 2991 2991 2990 2990 2990 2990 2989 2989 2988 2988 2987 2986 2985 2984 2984 2984 2983 2983 2982 2982 2981 2980 2979 2979 2978 2978 2977 2976 2975 2974 2972 2971 2970 2969 2968 2967 2967 2966 2964 2963 2962 2960 2958 2956 2954 2953 2951 2949 2947 2946
2984 2984 2984 2985 2986 2986 2987 2987 2988 2988 2988 2989 2989 2989 2989 2989 2989 2989 2989 2989 2989 2989 2989 2989 2989 2989 2989 2989 2989 2989 2989 2989 2989 2989 2989 2989 2989 2989 2988 2988 2988 2988 2987 2987 2986 2985 2985 2984 2983 2982 2981 2981 2980 2980 2980 2979 2978 2977 2977 2976 2975 2975 2974 2974 2973 2972 2970 2969 2968 2967 2966 2965 2964 2963 2962 2961 2959 2958 2956 2954 2952 2950 2948 2946 2945 2944
2982 2982 2983 2984 2984 2984 2985 2985 2985 2986 2986 2986 2986 2987 2987 2987 2987 2987 2987 2987 2987 2987 2987 2987 2987 2987 2987 2987 2987 2987 2987 2987 2987 2987 2987 2986 2986 2986 2986 2986 2985 2985 2985 2984 2984 2984 2983 2982 2981 2980 2979 2979 2978 2977 2977 2976 2976 2975 2974 2974 2973 2972 2971 2971 2970 2969 2968 2967 2966 2964 2963 2962 2961 2960 2959 2959 2957 2955 2954 2952 2950 2948 2946 2944 2943 2941
2980 2980 2981 2982 2982 2983 2983 2983 2984 2984 2984 2984 2984 2984 2985 2985 2985 2984 2984 2985 2985 2985 2985 2985 2985 2985 2985 2985 2985 2985 2985 2985 2985 2984 2984 2984 2984 2984 2984 2984 2984 2983 2983 2982 2982 2981 2981 2980 2979 2978 2977 2976 2975 2975 2974 2974 2973 2973 2972 2971 2970 2970 2969 2968 2967 2966 2965 2964 2963 2962 2961 2959 2959 2958 2957 2956 2955 2953 2952 2950 2948 2946 2944 2942 2941 2939
2978 2979 2979 2980 2980 2980 2981 2981 2982 2982 2982 2982 2982 2982 2983 2983 2983 2983 2983 2983 2983 2983 2983 2983 2983 2983 2983 2983 2983 2983 2983 2983 2983 2983 2983 2983 2982 2982 2982 2982 2981 2981 2981 2980 2980 2979 2979 2978 2977 2976 2975 2974 2974 2973 2972 2971 2970 2970 2969 2969 2968 2968 2967 2966 2965 2964 2962 2961 2960 2959 2958 2957 2956 2955 2954 2953 2952 2951 2949 2948 2946 2944 2942 2940 2939 2938
2976 2977 2977 2978 2978 2979 2979 2979 2979 2980 2980 2980 2980 2980 2980 2980 2980 2980 2980 2981 2981 2981 2981 2981 2981 2981 2981 2981 2981 2981 2981 2981 2981 2981 2981 2980 2980 2980 2980 2980 2979 2979 2979 2978 2978 2977 2976 2975 2974 2974 2973 2972 2972 2971 2970 2969 2968 2967 2967 2966 2966 2965 2964 2964 2963 2961 2960 2959 2958 2957 2955 2954 2953 2952 2951 2950 2949 2949 2947 2946 2944 2942 2940 2938 2937 2936
2974 2975 2975 2976 2976 2977 2977 2977 2977 2977 2978 2978 2978 2978 2978 2978 2978 2979 2979 2979 2979 2979 2979 2979 2979 2979 2979 2979 2979 2979 2979 2979 2979 2979 2979 2978 2978 2978 2978 2977 2977 2977 2976 2976 2975 2975 2974 2974 2972 2971 2970 2970 2969 2969 2968 2967 2966 2965 2964 2964 2964 2963 2962 2962 2961 2959 2958 2957 2955 2954 2953 2951 2950 2949 2948 2947 2946 2946 2945 2944 2942 2940 2938 2936 2935 2934
2972 2973 2973 2974 2974 2974 2975 2975 2975 2975 2975 2975 2976 2976 2976 2976 2976 2977 2977 2977 2977 2977 2977 2978 2978 2978 2978 2978 2978 2978 2978 2978 2977 2977 2977 2976 2976 2976 2975 2975 2975 2974 2974 2974 2974 2973 2973 2972 2971 2969 2968 2968 2967 2967 2966 2965 2964 2964 2963 2962 2961 2960 2960 2959 2958 2957 2956 2955 2953 2952 2950 2949 2948 2946 2945 2944 2943 2943 2942 2941 2940 2938 2936 2934 2933 2932
2970 2971 2971 2972 2972 2972 2973 2973 2973 2973 2974 2974 2974 2974 2974 2974 2974 2975 2975 2975 2975 2976 2976 2976 2976 2976 2976 2976 2976 2976 2976 2976 2975 2975 2975 2974 2974 2974 2974 2973 2973 2973 2972 2972 2972 2971 2971 2970 2969 2968 2966 2965 2965 2964 2964 2963 2962 2962 2961 2960 2959 2958 2957 2957 2956 2955 2954 2952 2951 2950 2949 2947 2945 2944 2943 2941 2940 2940 2939 2939 2938 2936 2934 2933 2931 2930
2969 2969 2969 2969 2970 2970 2970 2971 2971 2971 2972 2972 2972 2972 2972 2973 2973 2973 2974 2974 2974 2974 2974 2974 2974 2974 2974 2974 2974 2974 2974 2974 2974 2973 2973 2972 2972 2972 2971 2971 2971 2971 2970 2970 2970 2969 2969 2969 2968 2966 2964 2963 2962 2962 2961 2960 2960 2959 2959 2958 2957 2956 2955 2954 2953 2952 2951 2950 2949 2948 2946 2945 2943 2942 2940 2939 2938 2937 2937 2936 2935 2934 2933 2931 2929 2928